Location: Bacea
(45.9500°N, 22.6667°E)
Time: 22:53:47
(UTC+00:00)

Cosmos 2082 - Pass Details

Date: 16 October 2021
Orbit: 835 x 853 km, 71.0° (Epoch: 25 November)

Event Time Altitude Azimuth Distance (km) Brightness Sun altitude
Rises 16:25:02 0° 335° (NNW) 3,397 7.1 -8.3°
Reaches altitude 10° 16:27:31 10° 338° (NNW) 2,458 6.4 -8.8°
Maximum altitude 16:33:07 66° 61° (ENE) 912 3.7 -9.7°
Drops below altitude 10° 16:38:41 10° 144° (SE) 2,442 5.8 -10.7°
Sets 16:41:08 0° 147° (SSE) 3,373 6.5 -11.1°
